OPS 4682 DEB, 1389

Orbit data source: Space-Track

OPS 4682 DEB, 1389 is space debris in LEO originally from a launch on Sat, 03 Apr 1965 UTC launched from the Air Force Western Test Range (AFWTR). Debris objects in space refer to the collection of defunct objects orbiting the Earth. Examples of debris include non-operational satellites, rocket bodies, and fragments generated from explosions, collisions, or faulty payload assembly.

Loading next visibility...
Identifier
1389, 1965-027D
Orbit
LEO
Country
Flag of USUS
Related business
Manufacturer
Unknown
Mission
Spacecraft
Bus & Motor
Unknown
Mass
7 kg wet, 7 kg dry
Launch date (UTC)
1965-04-03 (61 years ago)
Launch vehicle
Unknown
Launch site
Air Force Western Test Range (AFWTR)
Object type
Payload
Rocket body
Debris
Shape & HBR
Unknown
Radar Cross Section
Medium (>0.1 m² and <1 m²)

Expand to show TLE details & history
Last TLE update: 18 hours ago

TLE from 18 hours ago
0 OPS 4682 DEB
1  1389U 65027D   26035.52462558  .00000786  00000-0  20894-2 0  9990
2  1389  89.8585 221.3825 0024833 146.9048 268.1465 13.14589070893258
Epoch: 2026-02-04T12:35Z
TLE epoch observation values (Epoch: 2026-02-04T12:35:27.650Z)
Latitude
54.85883°
Longitude
-101.97266°
Altitude
1,215.244 km
Speed
7.251 km/s
True Right ascension
14h 46m 19s
True Declination
54° 42' 24"
Sunlit
Object was in daylight at epoch
Visualization orbit readout
Latitude
Unknown
Longitude
Unknown
Altitude
Unknown
Speed
Unknown
Apparent Right ascension
Unknown
Apparent Declination
Unknown
Sunlit
N/A
Visualization observer readout
Local Sidereal Time
08:45:19
Azimuth
Unknown
Elevation
Unknown
Doppler factor
Unknown
Orbital elements
Apogee altitude
1,221.385 km
Perigee altitude
1,183.735 km
Semi-major axis
7,580.697 km
Eccentricity
0.00248
Inclination
89.8585°
RAAN
221.3825°
Arg. of periapsis
146.9048°
True anomaly
267.86211°
Mean anomaly
268.1465°
Eccentric anomaly
268.0043°
Mean motion
3.28836 °/min
Orbital period
109.48 mins
BSTAR
0.0020894
Loading maneuver chart data...
Computing Atmospheric mass density...
Loading historical data...
Loading historical data...
Loading historical data...
Loading historical data...
Loading historical data...
Loading historical data...
Loading historical data...

Documentation

Showing up to 5 results
|